| time (UTC) | temp F | wind direction | speed MPH | gust MPH | rain 1hr in | rain 24hr in | rain mn in | humidity % | barometer mb |
| 20260901120017 | 58 | 155 | 0.0 | 0.0 | 0.15 | 0.15 | 0.15 | 94 | 1019.1 |
| 20260901114513 | 59 | 297 | 0.0 | 0.0 | 0.08 | 0.08 | 0.08 | 93 | 1018.9 |
| 20260901113010 | 59 | 297 | 0.0 | 0.0 | 0.04 | 0.04 | 0.04 | 92 | 1018.5 |
| 20260901111508 | 60 | 297 | 0.0 | 0.0 | 0.01 | 0.01 | 0.01 | 90 | 1018.3 |
| 20260901110008 | 61 | 297 | 0.0 | 0.0 | 0.00 | 0.00 | 0.00 | 88 | 1018.2 |
| 20260901104507 | 61 | 85 | 0.0 | 0.0 | 0.00 | 0.00 | 0.00 | 88 | 1018.1 |
| 20260901103000 | 62 | 84 | 0.0 | 0.0 | 0.00 | 0.00 | 0.00 | 86 | 1017.9 |
| 20260901101600 | 62 | 330 | 0.0 | 0.0 | 0.00 | 0.00 | 0.00 | 85 | 1017.9 |
| 20260901100100 | 62 | 6 | 0.0 | 0.0 | 0.00 | 0.00 | 0.00 | 87 | 1017.5 |
| 20260901094556 | 63 | 6 | 0.0 | 0.0 | 0.00 | 0.00 | 0.00 | 88 | 1017.5 |
| 20260901093059 | 63 | 6 | 0.0 | 0.0 | 0.00 | 0.00 | 0.00 | 88 | 1017.4 |
| 20260901091604 | 63 | 12 | 0.0 | 0.0 | 0.00 | 0.00 | 0.00 | 88 | 1017.4 |
| 20260901090059 | 63 | 224 | 0.0 | 0.0 | 0.00 | 0.00 | 0.00 | 88 | 1017.4 |
| 20260901084553 | 63 | 224 | 0.0 | 0.0 | 0.00 | 0.00 | 0.00 | 88 | 1017.5 |
| 20260901083052 | 63 | 123 | 0.0 | 0.0 | 0.00 | 0.00 | 0.00 | 88 | 1017.3 |
| 20260901081551 | 63 | 122 | 0.0 | 0.0 | 0.00 | 0.00 | 0.00 | 88 | 1017.6 |
| 20260901080106 | 63 | 122 | 0.0 | 0.0 | 0.00 | 0.00 | 0.00 | 88 | 1017.6 |
| 20260901074547 | 63 | 122 | 0.0 | 0.0 | 0.00 | 0.00 | 0.00 | 89 | 1017.6 |
| 20260901073046 | 63 | 122 | 0.0 | 0.0 | 0.00 | 0.00 | 0.00 | 89 | 1018.0 |
| 20260901071547 | 63 | 122 | 0.0 | 0.0 | 0.00 | 0.00 | 0.00 | 89 | 1018.1 |
| 20260901070054 | 63 | 122 | 0.0 | 0.0 | 0.00 | 0.00 | 0.00 | 88 | 1017.8 |
| 20260901064549 | 63 | 122 | 0.0 | 0.0 | 0.00 | 0.00 | 0.00 | 87 | 1018.1 |
| 20260901063040 | 64 | 122 | 0.0 | 0.0 | 0.00 | 0.00 | 0.00 | 86 | 1018.1 |
| 20260901061539 | 64 | 118 | 0.0 | 0.0 | 0.00 | 0.00 | 0.00 | 86 | 1018.3 |
| 20260901060042 | 64 | 124 | 0.0 | 0.0 | 0.00 | 0.00 | 0.00 | 86 | 1018.2 |
| 20260901054537 | 64 | 109 | 0.0 | 0.0 | 0.00 | 0.00 | 0.00 | 86 | 1018.3 |
| 20260901053036 | 64 | 136 | 0.0 | 0.0 | 0.00 | 0.00 | 0.00 | 85 | 1018.3 |
| 20260901051536 | 64 | 109 | 0.0 | 0.0 | 0.00 | 0.00 | 0.00 | 84 | 1018.4 |
| 20260901050034 | 64 | 109 | 0.0 | 0.0 | 0.00 | 0.00 | 0.00 | 84 | 1018.5 |
| 20260901044535 | 64 | 109 | 0.0 | 0.0 | 0.00 | 0.00 | 0.00 | 84 | 1018.2 |
| 20260901043032 | 64 | 117 | 0.0 | 0.0 | 0.00 | 0.00 | 0.00 | 84 | 1018.3 |
| 20260901041530 | 64 | 117 | 0.0 | 0.0 | 0.00 | 0.00 | 0.00 | 83 | 1018.2 |
| 20260901040026 | 65 | 117 | 0.0 | 0.0 | 0.00 | 0.00 | 0.00 | 82 | 1018.1 |
| 20260901034525 | 66 | 117 | 0.0 | 0.0 | 0.00 | 0.00 | 0.00 | 81 | 1018.3 |
| 20260901033035 | 66 | 117 | 0.0 | 0.0 | 0.00 | 0.00 | 0.00 | 80 | 1018.2 |
| 20260901031532 | 66 | 125 | 0.0 | 0.0 | 0.00 | 0.00 | 0.00 | 80 | 1018.3 |
| 20260901030024 | 66 | 126 | 0.0 | 0.0 | 0.00 | 0.00 | 0.00 | 80 | 1018.4 |
| 20260901024524 | 66 | 120 | 0.0 | 0.0 | 0.00 | 0.00 | 0.00 | 80 | 1018.4 |
| 20260901023023 | 66 | 120 | 0.0 | 0.0 | 0.00 | 0.00 | 0.00 | 79 | 1018.3 |
| 20260901021542 | 66 | 162 | 0.0 | 0.0 | 0.00 | 0.00 | 0.00 | 79 | 1018.3 |
| 20260901020023 | 67 | 197 | 0.0 | 0.0 | 0.00 | 0.00 | 0.00 | 77 | 1018.3 |
| 20260901014522 | 67 | 197 | 0.0 | 0.0 | 0.00 | 0.00 | 0.00 | 76 | 1018.2 |
| 20260901013030 | 68 | 197 | 0.0 | 0.0 | 0.00 | 0.00 | 0.00 | 76 | 1018.4 |
| 20260901011521 | 68 | 224 | 0.0 | 0.0 | 0.00 | 0.00 | 0.00 | 74 | 1018.5 |
| 20260901010038 | 68 | 231 | 0.0 | 0.0 | 0.00 | 0.00 | 0.00 | 73 | 1018.5 |
| 20260901004520 | 69 | 180 | 0.0 | 0.0 | 0.00 | 0.00 | 0.00 | 70 | 1018.4 |
| 20260901003026 | 70 | 177 | 0.0 | 1.0 | 0.00 | 0.00 | 0.00 | 68 | 1018.4 |
| 20260901001519 | 70 | 272 | 0.0 | 0.0 | 0.00 | 0.00 | 0.00 | 65 | 1018.3 |
| 20260901000018 | 71 | 136 | 0.0 | 0.0 | 0.00 | 0.00 | 0.00 | 62 | 1018.2 |
| 20260831234518 | 71 | 141 | 0.0 | 0.0 | 0.00 | 0.00 | 0.00 | 59 | 1018.1 |
| 20260831233017 | 72 | 149 | 0.0 | 0.0 | 0.00 | 0.00 | 0.00 | 54 | 1018.2 |
| 20260831231518 | 73 | 149 | 0.0 | 0.0 | 0.00 | 0.00 | 0.00 | 51 | 1018.3 |
| 20260831230017 | 74 | 129 | 0.0 | 0.0 | 0.00 | 0.00 | 0.00 | 49 | 1018.4 |
| 20260831224516 | 76 | 129 | 0.0 | 0.0 | 0.00 | 0.00 | 0.00 | 47 | 1018.5 |
| 20260831223027 | 78 | 129 | 0.0 | 0.0 | 0.00 | 0.00 | 0.00 | 46 | 1018.4 |
| 20260831221516 | 78 | 129 | 0.0 | 0.0 | 0.00 | 0.00 | 0.00 | 45 | 1018.4 |
| 20260831220015 | 77 | 222 | 0.0 | 3.0 | 0.00 | 0.00 | 0.00 | 43 | 1018.4 |
| 20260831214514 | 78 | 145 | 0.0 | 4.0 | 0.00 | 0.00 | 0.00 | 42 | 1018.3 |
| 20260831213016 | 79 | 128 | 0.0 | 6.0 | 0.00 | 0.00 | 0.00 | 40 | 1018.3 |
| 20260831211512 | 79 | 203 | 1.0 | 6.0 | 0.00 | 0.00 | 0.00 | 39 | 1018.4 |
| 20260831210014 | 79 | 294 | 0.0 | 7.0 | 0.00 | 0.00 | 0.00 | 37 | 1018.5 |
| 20260831204508 | 79 | 288 | 0.0 | 4.0 | 0.00 | 0.00 | 0.00 | 42 | 1018.6 |
| 20260831203010 | 78 | 304 | 0.0 | 7.0 | 0.00 | 0.00 | 0.00 | 43 | 1018.8 |
| 20260831201503 | 77 | 278 | 0.0 | 5.0 | 0.00 | 0.00 | 0.00 | 45 | 1018.8 |
| 20260831200006 | 80 | 308 | 0.0 | 7.0 | 0.00 | 0.00 | 0.00 | 39 | 1018.8 |
| 20260831194641 | 80 | 137 | 0.0 | 7.0 | 0.00 | 0.00 | 0.00 | 45 | 1018.8 |
| 20260831193056 | 77 | 240 | 0.0 | 6.0 | 0.00 | 0.00 | 0.00 | 46 | 1018.9 |
| 20260831191556 | 77 | 158 | 5.0 | 12.0 | 0.00 | 0.00 | 0.00 | 47 | 1019.0 |
| 20260831184558 | 78 | 115 | 2.0 | 8.0 | 0.00 | 0.00 | 0.00 | 43 | 1019.3 |
| 20260831183052 | 77 | 134 | 1.0 | 8.0 | 0.00 | 0.00 | 0.00 | 45 | 1019.5 |
| 20260831181552 | 77 | 141 | 1.0 | 10.0 | 0.00 | 0.00 | 0.00 | 46 | 1019.7 |
| 20260831180050 | 78 | 269 | 1.0 | 6.0 | 0.00 | 0.00 | 0.00 | 43 | 1019.6 |
| 20260831174551 | 77 | 143 | 2.0 | 6.0 | 0.00 | 0.00 | 0.00 | 42 | 1019.8 |
| 20260831173046 | 75 | 296 | 0.0 | 6.0 | 0.00 | 0.00 | 0.00 | 45 | 1020.1 |
| 20260831171545 | 75 | 104 | 0.0 | 3.0 | 0.00 | 0.00 | 0.00 | 48 | 1020.3 |
| 20260831170039 | 75 | 172 | 2.0 | 7.0 | 0.00 | 0.00 | 0.00 | 51 | 1020.4 |
| 20260831164539 | 74 | 183 | 2.0 | 7.0 | 0.00 | 0.00 | 0.00 | 51 | 1020.4 |
| 20260831163039 | 75 | 122 | 3.0 | 7.0 | 0.00 | 0.00 | 0.00 | 52 | 1020.6 |
| 20260831161536 | 74 | 140 | 0.0 | 6.0 | 0.00 | 0.00 | 0.00 | 51 | 1020.7 |
| 20260831160033 | 73 | 173 | 1.0 | 5.0 | 0.00 | 0.00 | 0.00 | 54 | 1020.8 |
| 20260831154537 | 73 | 231 | 1.0 | 7.0 | 0.00 | 0.00 | 0.00 | 56 | 1020.8 |
| 20260831153037 | 73 | 139 | 0.0 | 1.0 | 0.00 | 0.00 | 0.00 | 56 | 1020.9 |
| 20260831151529 | 72 | 114 | 2.0 | 5.0 | 0.00 | 0.00 | 0.00 | 56 | 1021.0 |
| 20260831150024 | 71 | 134 | 0.0 | 4.0 | 0.00 | 0.00 | 0.00 | 61 | 1021.1 |
| 20260831144520 | 69 | 124 | 0.0 | 3.0 | 0.00 | 0.00 | 0.00 | 63 | 1021.3 |
| 20260831143017 | 68 | 116 | 0.0 | 4.0 | 0.00 | 0.00 | 0.00 | 67 | 1021.3 |
| 20260831141513 | 67 | 5 | 0.0 | 0.0 | 0.00 | 0.00 | 0.00 | 67 | 1021.4 |
| 20260831140009 | 66 | 242 | 0.0 | 0.0 | 0.00 | 0.00 | 0.00 | 71 | 1021.3 |
| 20260831134505 | 64 | 297 | 0.0 | 0.0 | 0.00 | 0.00 | 0.00 | 73 | 1021.2 |
| 20260831133005 | 63 | 141 | 0.0 | 0.0 | 0.00 | 0.00 | 0.00 | 76 | 1021.2 |
| 20260831131503 | 62 | 131 | 0.0 | 0.0 | 0.00 | 0.00 | 0.00 | 78 | 1021.2 |
| 20260831130106 | 61 | 315 | 0.0 | 0.0 | 0.00 | 0.00 | 0.00 | 80 | 1021.2 |
| 20260831124603 | 60 | 315 | 0.0 | 0.0 | 0.00 | 0.00 | 0.00 | 81 | 1021.1 |
| 20260831123057 | 59 | 315 | 0.0 | 0.0 | 0.00 | 0.00 | 0.00 | 83 | 1021.0 |
| 20260831121553 | 59 | 315 | 0.0 | 0.0 | 0.00 | 0.00 | 0.00 | 84 | 1021.0 |